RH
71 70 73 67 72 73 61 56 56 63 74 80 84 85 91 92 91 92 91 79 74 66 62 63 60 58 56 54 54 52 50 50 51 53 54 54 54 55 55 55 54 54 54
72 66 68 69 75 68 68 54 53 59 65 70 79 85 88 92 91 92 90 86 80 74 67 61 60 59 57 54 52 51 50 48 47 50 52 52 54 54 53 53 52 52 52
66 66 71 74 74 75 68 62 64 62 61 56 65 72 80 88 90 90 90 90 85 81 76 68 62 60 59 58 53 50 48 48 45 47 50 51 52 52 52 51 50 50 50
67 68 69 73 76 79 76 68 70 67 63 61 64 65 68 76 82 86 89 89 89 82 81 77 72 64 62 61 60 53 49 48 45 46 51 51 53 53 50 49 49 49 50
71 66 68 76 80 82 80 72 79 72 68 64 58 62 65 66 68 58 78 84 88 88 87 84 81 78 74 63 55 53 49 46 45 45 52 51 52 50 47 45 45 48 49
70 74 75 80 82 83 82 80 79 81 74 69 49 53 63 63 64 69 69 65 78 86 88 85 90 84 79 71 60 52 49 46 45 46 51 52 52 50 47 44 44 44 47
75 82 81 88 87 84 83 83 81 80 84 77 71 70 70 67 64 62 64 70 73 75 87 86 87 85 80 77 68 55 49 49 48 49 50 52 54 53 50 47 46 45 46
79 85 87 93 93 92 88 88 82 86 83 83 80 75 73 69 75 64 60 58 68 73 78 80 82 85 81 78 81 65 53 51 50 50 51 52 56 57 55 52 50 48 48
90 91 92 94 94 94 92 89 86 81 83 88 75 72 82 80 76 80 72 68 61 70 70 77 80 80 82 75 74 77 76 74 62 51 52 55 57 61 59 56 53 52 51
90 90 92 94 94 96 93 91 87 87 88 93 95 90 87 84 88 90 80 76 69 59 64 66 68 72 71 72 69 73 79 82 79 63 53 52 56 62 62 60 57 54 54
86 90 92 93 96 94 94 94 94 92 90 94 93 96 96 95 93 93 93 91 84 80 75 71 70 67 63 66 69 69 75 80 79 72 64 57 53 61 64 64 61 58 57
91 92 92 95 95 97 96 95 97 95 94 92 96 97 97 95 97 97 98 95 91 84 67 70 74 73 71 70 63 68 73 79 80 76 71 68 62 58 64 66 65 63 60
94 94 95 96 97 95 96 96 96 96 97 97 96 96 95 93 94 94 96 93 92 82 69 66 65 68 61 72 71 73 76 83 85 82 79 75 73 69 64 62 64 64 62
89 87 93 95 96 96 97 98 99 98 98 98 98 95 94 94 94 94 92 94 94 90 80 78 66 68 64 66 68 74 77 85 87 86 86 84 80 77 74 71 64 61 59
91 91 92 94 96 97 98 98 99 99 99 98 98 97 97 98 96 90 84 82 89 97 90 80 73 73 69 72 70 74 75 74 81 86 88 87 84 80 77 76 74 71 65
93 93 93 96 97 98 98 98 97 98 98 99 99 99 98 95 92 88 86 87 85 88 92 86 81 79 75 65 69 75 75 74 82 87 89 89 88 85 82 79 77 75 70
92 91 91 94 95 96 98 99 99 99 99 99 99 97 95 91 93 92 91 90 93 91 97 90 83 79 79 78 76 77 76 78 79 83 86 84 84 85 84 83 82 80 79
92 89 92 93 96 97 99 99 99 98 98 99 98 96 94 85 90 91 92 93 93 92 93 95 86 84 82 82 83 82 66 60 74 71 79 78 79 81 83 85 87 86 82
90 92 95 98 98 98 99 99 98 98 98 98 95 93 92 91 95 95 95 95 90 84 89 92 86 91 86 85 82 77 77 80 64 58 67 69 69 71 75 78 82 85 84
93 94 97 98 99 99 99 99 98 98 98 96 94 92 91 90 92 94 89 92 79 80 77 80 80 83 87 78 83 80 66 75 74 59 61 68 74 74 77 79 81 81 82
92 94 98 99 99 99 98 98 98 98 97 97 96 91 92 91 90 86 79 77 71 73 71 71 69 78 66 72 75 81 84 82 80 78 76 79 81 72 71 71 74 76 80
97 98 99 98 99 99 100 99 96 96 94 94 90 85 82 82 80 80 76 74 66 68 66 70 74 72 76 83 87 91 91 87 82 75 78 78 78 78 74 72 71 80 86
99 99 99 98 98 99 100 98 97 92 95 88 84 74 67 75 82 70 68 66 69 70 84 80 84 84 89 86 89 84 82 85 88 77 80 83 72 78 72 71 74 79 84
99 98 99 98 98 97 99 97 93 87 87 81 76 70 76 73 71 65 70 76 77 75 77 75 83 84 88 88 88 74 78 80 75 73 82 92 73 77 72 71 78 79 81
98 98 98 98 98 98 95 92 82 75 72 69 68 68 66 70 70 70 76 79 78 73 61 63 67 66 67 70 74 84 87 92 89 70 77 84 76 81 75 79 80 85 90
98 97 98 97 97 97 93 86 75 74 73 72 67 65 72 74 75 80 83 81 78 73 72 65 66 67 69 73 73 74 87 94 90 86 73 89 74 83 88 85 87 86 79
Wind_Speed
7 7 4 4 4 4 6 6 8 8 6 6 5 7 7 6 5 2 2 10 11 14 15 16 15 14 13 11 11 10 9 9 9 10 9 9 10 10 10 10 10 10 10
8 6 5 4 4 4 5 6 8 7 5 5 6 6 6 5 6 5 3 5 11 12 13 14 13 12 11 10 9 8 8 8 7 8 8 8 9 8 8 7 8 8 8
9 8 6 3 4 4 4 7 6 5 5 3 5 5 5 6 6 6 4 3 5 10 10 12 13 12 11 10 9 8 8 7 7 7 7 6 7 7 6 6 6 6 7
9 8 5 4 4 3 3 6 5 4 4 4 3 2 3 3 4 5 4 4 3 3 7 10 10 12 12 12 12 10 9 9 8 7 7 6 7 6 4 3 4 5 6
8 7 5 4 5 4 4 6 3 3 4 3 4 3 2 2 3 2 4 4 4 4 3 9 11 10 10 11 11 11 10 9 8 7 7 6 7 6 3 1 2 4 6
10 5 4 4 4 4 3 4 4 1 3 4 3 3 2 2 3 4 4 4 5 5 5 6 4 5 11 12 12 12 11 10 9 9 10 8 8 6 4 1 1 3 5
7 6 4 5 5 5 5 4 3 4 1 3 3 2 2 4 5 5 4 4 5 6 5 5 4 3 5 13 14 13 12 12 12 12 12 11 10 8 7 6 5 4 4
9 6 7 6 5 4 4 5 4 2 1 4 4 2 1 3 3 5 4 5 6 3 5 6 5 5 4 4 6 15 16 15 14 14 13 14 14 13 11 10 9 8 8
5 7 7 5 6 5 5 5 6 6 4 3 3 3 1 5 1 0 4 4 5 4 4 4 4 4 5 5 7 8 13 12 15 16 16 16 17 17 16 15 13 12 11
7 6 7 7 6 4 5 6 6 4 4 5 1 2 0 2 3 2 1 2 4 6 3 4 5 7 8 5 8 9 8 9 13 18 20 19 18 19 19 18 16 15 14
7 7 8 8 6 6 7 7 6 6 5 4 4 3 1 0 1 2 5 2 2 2 4 4 5 4 5 5 4 7 12 11 14 17 21 23 21 21 21 21 19 19 17
4 6 4 5 5 6 6 6 6 7 8 6 5 5 5 4 4 4 3 3 3 2 3 3 3 3 2 4 5 7 9 11 13 16 19 22 24 24 24 23 23 23 22
3 5 5 6 5 7 8 7 7 7 7 7 8 6 4 5 3 3 3 3 3 1 2 1 1 3 3 3 2 5 8 10 11 15 18 20 22 24 25 24 25 26 26
3 6 6 6 6 6 6 5 3 4 6 7 8 9 6 5 4 3 4 4 2 3 1 4 1 2 2 1 4 4 4 8 11 13 14 16 18 20 21 24 26 27 28
5 6 7 7 7 8 8 8 6 8 6 6 7 6 4 2 3 4 3 3 4 3 4 2 2 1 2 2 4 3 4 9 12 13 13 15 18 20 23 25 26 28 29
7 8 8 7 8 8 9 10 8 6 9 6 5 7 4 3 4 3 3 3 3 4 3 3 3 3 3 3 4 4 5 8 10 11 13 15 18 21 23 25 26 29 28
9 9 9 8 11 10 9 9 7 7 9 7 5 7 6 6 5 5 4 2 3 3 3 2 2 1 2 3 4 3 4 4 4 11 14 17 18 21 23 25 26 26 27
10 11 11 11 10 10 10 9 8 9 10 10 9 8 7 6 7 6 4 4 2 3 2 3 1 1 1 1 2 4 6 6 5 9 14 16 18 20 22 23 25 26 26
13 13 12 11 11 10 10 8 9 10 10 10 10 10 11 8 7 4 4 4 3 3 2 2 0 1 2 1 2 3 4 5 5 15 15 17 19 20 22 23 24 25 25
14 10 10 10 8 7 6 6 8 8 8 7 7 8 8 7 6 6 5 4 3 4 2 2 1 3 2 2 1 3 6 5 7 9 13 14 18 19 22 22 23 25 26
12 12 10 7 7 8 7 10 10 9 9 9 8 7 6 9 10 7 5 4 4 3 2 1 2 1 2 1 2 2 5 7 7 7 6 5 7 9 12 18 19 21 22
11 10 10 9 8 5 10 11 12 9 11 11 10 10 10 15 13 15 15 9 5 4 3 2 2 1 2 2 2 4 6 8 7 2 6 11 8 10 10 9 19 21 22
8 8 7 9 9 7 15 14 13 9 10 11 11 11 7 8 9 7 10 9 7 6 3 3 2 1 2 1 4 9 9 8 10 10 11 12 8 10 9 10 20 21 18
8 8 8 9 8 7 15 15 16 11 11 10 9 9 10 8 6 6 6 5 4 3 3 1 2 4 5 6 6 8 10 11 10 10 9 10 8 10 9 9 18 21 18
8 8 8 10 11 10 18 18 15 11 11 10 8 8 8 9 9 8 5 4 3 4 4 6 8 10 12 13 10 6 7 8 11 9 4 7 8 9 8 9 8 16 16
9 8 9 8 12 12 16 17 14 9 10 8 9 10 11 7 9 9 5 4 3 3 4 6 6 7 8 8 10 6 6 8 9 9 1 3 8 5 6 1 4 4 4
Wind_Direction
133 120 116 110 99 118 119 112 121 125 123 128 134 136 136 138 142 129 138 151 149 151 152 146 148 146 137 129 127 123 119 114 108 104 102 91 86 77 70 66 61 53 39
126 120 122 97 125 137 97 153 126 127 136 143 144 138 142 152 157 163 180 176 168 166 163 162 157 158 151 144 142 146 143 129 120 115 110 101 97 88 78 63 50 43 36
132 134 101 153 153 97 165 107 101 111 132 123 138 152 161 167 171 179 188 192 187 178 174 177 175 176 176 169 170 170 167 157 145 135 126 109 102 92 76 54 39 33 27
114 117 156 169 128 142 185 125 130 118 110 128 140 167 181 162 179 189 188 195 195 186 191 190 191 195 194 196 189 191 186 179 170 160 148 133 120 111 91 58 29 19 11
126 155 163 166 151 155 195 128 110 125 141 149 157 160 161 182 212 225 217 208 208 199 195 211 199 207 210 203 201 202 202 195 189 182 167 158 153 145 136 89 18 6 357
153 161 153 149 151 173 168 112 139 140 148 165 140 169 191 211 208 215 218 214 211 209 208 206 205 208 203 200 213 218 219 209 204 200 192 190 185 176 170 168 344 339 333
155 163 162 167 176 177 173 152 154 162 142 147 103 32 288 229 230 220 208 224 224 214 205 202 208 199 205 207 214 228 233 226 217 215 213 211 211 204 198 197 212 240 278
181 174 181 183 189 155 158 176 166 132 153 173 141 112 272 274 234 220 210 216 224 207 215 219 209 208 206 220 218 228 235 237 234 232 228 228 217 219 219 216 222 230 245
167 186 198 175 173 169 187 187 180 176 178 185 205 150 148 233 332 44 222 212 214 212 221 206 214 223 222 221 230 239 242 246 249 246 243 233 225 224 226 227 227 233 243
196 195 192 199 172 165 198 204 194 183 146 169 191 216 108 171 181 312 306 257 199 229 198 212 214 220 216 219 224 236 270 265 260 257 251 251 235 231 234 234 234 236 242
194 202 197 189 169 185 202 197 179 187 199 163 171 155 155 180 93 164 268 248 258 218 230 216 218 223 203 200 203 221 232 245 251 255 256 257 258 241 240 247 247 246 243
205 224 211 196 189 192 201 204 207 201 209 202 188 179 184 174 185 182 198 230 183 213 240 217 211 223 212 213 227 229 248 253 259 263 260 256 256 252 248 247 249 255 256
178 197 196 207 201 205 207 202 201 209 193 204 210 214 200 201 157 172 149 174 223 175 301 247 181 176 183 188 227 234 260 263 262 264 265 263 258 257 257 259 260 261 262
194 188 202 199 206 203 201 196 190 220 212 220 210 213 210 201 166 163 168 145 172 225 220 236 260 191 173 184 240 242 263 276 268 265 264 264 263 262 262 262 263 262 265
207 204 204 204 196 196 178 177 199 203 193 204 221 202 186 186 170 144 147 161 160 185 221 271 242 279 269 296 283 297 282 281 283 277 272 265 259 256 255 255 256 260 264
202 201 212 197 203 195 186 193 213 214 206 194 189 183 164 146 140 142 157 157 153 152 203 200 228 248 314 335 322 325 300 304 291 285 277 271 267 267 265 262 261 261 266
200 210 212 216 232 228 199 189 196 187 198 179 170 172 165 145 161 152 151 144 163 154 175 261 244 27 313 353 334 330 303 285 276 278 273 276 276 273 271 270 267 264 256
204 217 223 232 227 231 173 172 177 193 192 191 180 162 166 159 157 147 157 158 179 165 156 191 253 292 235 318 311 321 324 315 314 301 293 288 286 281 280 276 270 265 259
210 219 209 202 205 204 183 188 183 200 194 196 172 169 159 155 150 150 152 140 135 98 93 135 158 312 273 303 307 293 301 303 312 317 312 308 303 306 300 291 280 267 260
204 210 201 195 187 177 178 163 184 186 168 168 155 148 145 151 144 138 127 117 120 113 111 102 192 252 246 300 341 310 324 321 316 309 299 291 293 302 301 302 297 286 271
212 209 198 187 182 191 180 177 171 161 149 142 130 114 92 96 100 107 124 124 138 115 122 127 232 255 267 328 323 313 306 313 303 271 288 291 312 305 295 299 297 295 293
199 181 182 171 172 178 159 165 153 156 148 140 116 99 107 100 94 102 105 108 112 134 144 173 208 230 274 273 291 325 315 322 324 233 324 301 289 286 285 284 287 289 290
170 171 160 156 168 165 151 143 134 138 129 120 124 119 110 105 106 110 103 103 95 98 136 165 200 218 284 293 306 312 305 292 277 289 291 290 288 279 283 276 280 279 273
165 167 163 155 147 133 129 127 116 113 101 103 114 115 118 122 130 133 120 120 119 120 114 116 226 271 252 268 265 289 292 287 281 276 255 277 289 285 294 285 275 272 267
150 150 147 144 132 131 127 122 114 107 105 102 102 107 119 123 125 134 129 128 112 93 34 5 345 326 315 313 309 312 284 295 293 293 250 260 282 289 298 293 291 283 268
133 120 109 114 120 116 117 114 115 117 118 118 111 110 119 125 136 140 129 117 86 55 13 350 337 329 325 312 318 311 307 298 302 304 360 240 286 291 297 260 302 320 306